Location: Baia Mare
(47.6567°N, 23.5850°E)
Time: 13:02:25
(UTC+03:00)

ISS - Pass Details

Date: 14 July 2018
Orbit: 402 x 408 km, 51.6° (Epoch: 21 July)

Event Time Altitude Azimuth Distance (km) Brightness Sun altitude
Exits shadow 02:07:49 58° 85° (E) 480 -3.5 -20.1°
Drops below altitude 10° 02:10:35 10° 68° (ENE) 1,472 -0.6 -20.1°
Sets 02:12:41 0° 67° (ENE) 2,336 0.5 -20.0°
